This is the latest recevied weather packets stored in our database for station/object N7WSS. If no packets are shown the sender has not sent any weather packets the latest 10 day(s).
| Time | Temp. | Humidity | Pressure | Rain* | Wind** | Luminosity | Snow |
|---|---|---|---|---|---|---|---|
| 1777908737 | 22.78° C | 32% | 1012.5 hPa | 0 mm | - | - | - |
| 1777908434 | 22.78° C | 33% | 1012.5 hPa | 0 mm | - | - | - |
| 1777908130 | 22.78° C | 32% | 1012.4 hPa | 0 mm | - | - | - |
| 1777907827 | 22.78° C | 33% | 1012.1 hPa | 0 mm | - | - | - |
| 1777907522 | 22.78° C | 32% | 1012.7 hPa | 0 mm | - | - | - |
| 1777907219 | 23.33° C | 32% | 1012.6 hPa | 0 mm | - | - | - |
| 1777906915 | 23.33° C | 31% | 1012.7 hPa | 0 mm | - | - | - |
| 1777906613 | 22.78° C | 33% | 1012.5 hPa | 0 mm | - | - | - |
| 1777906308 | 22.78° C | 32% | 1012.5 hPa | 0 mm | - | - | - |
| 1777906006 | 21.67° C | 33% | 1012.6 hPa | 0 mm | - | - | - |
| 1777905702 | 21.67° C | 33% | 1012.4 hPa | 0 mm | - | - | - |
| 1777905398 | 22.22° C | 33% | 1012.4 hPa | 0 mm | - | - | - |
| 1777905097 | 22.22° C | 33% | 1012.5 hPa | 0 mm | - | - | - |
| 1777904793 | 22.22° C | 34% | 1012.4 hPa | 0 mm | - | - | - |
| 1777904491 | 21.67° C | 34% | 1012.3 hPa | 0 mm | - | - | - |
| 1777904187 | 21.67° C | 34% | 1012.3 hPa | 0 mm | - | - | - |
| 1777903884 | 21.67° C | 33% | 1012.6 hPa | 0 mm | - | - | - |
| 1777903581 | 21.67° C | 34% | 1012.1 hPa | 0 mm | - | - | - |
| 1777903277 | 21.11° C | 35% | 1012.1 hPa | 0 mm | - | - | - |
| 1777902974 | 21.11° C | 34% | 1012.6 hPa | 0 mm | - | - | - |
| 1777902670 | 20.56° C | 35% | 1012.5 hPa | 0 mm | - | - | - |
| 1777902368 | 20.56° C | 37% | 1012.4 hPa | 0 mm | - | - | - |
| 1777902064 | 20° C | 37% | 1012.3 hPa | 0 mm | - | - | - |
| 1777901763 | 19.44° C | 38% | 1012.3 hPa | 0 mm | - | - | - |
| 1777901460 | 18.33° C | 40% | 1012.1 hPa | 0 mm | - | - | - |
* Rain latest hour (hover to see other rain measurements)
** Current wind speed in m/s (hover to see current wind gust speed)